COSMOS 1640

导读

COSMOS 1640(宇宙1640)是苏联(CIS,独联体前身)于1985年3月21日08:00发射的人造卫星,隶属于苏联/俄罗斯“宇宙号”卫星系列。该系列是全球规模最大的多任务卫星家族,编号超2500颗,多数承担军用任务,也涵盖科学探测、技术试验等用途。作为该序列中一颗服役卫星,它延续了宇宙系列多用途混编的设计定位,服务于当时苏联航天科研与空间应用需求。

Basic Information
目录编号:
15622
目录名称:
COSMOS 1640
国际标识:
1985-023F
轨道中心:
EARTH
卫星名称:
COSMOS 1640
卫星全名:
--
卫星状态:
在轨 (已飞行15152 天)
发射日期:
1985-03-21 UTC
国别 :
俄罗斯(独联体) (CIS)
星等 :
--
This satellite is enrolled in the Space Conjunction Data Service (SCDS) and the current flight risk assessment level is: No High Risk
Orbit Information
数据来源 国际轨道数据 AOE轨道数据
星历时间 2026-09-13T19:00:39+0800
19小时前
查看轨道信息
2026-09-13T00:00:00+0800
1天前
查看轨道信息
半长轴 7830.768km 7830.748km
偏心率 0.0034197 0.0034118
轨道倾角 74.056° 74.055°
近地点辐角 219.168° 220.649°
升交点赤经 143.231° 144.286°
平近点角 314.605° 341.743°
近地点 1425.852km 1425.894km
远地点 1479.41km 1479.328km
周期 114.939分钟 114.938分钟
每日圈数 12.528419 12.528467
Detailed Information
使用方式:
暂无
2D Orbit Map
3D Orbit Map
Orbit Altitude Analysis Chart
Orbit Inclination Analysis Chart
Orbit Comprehensive Analysis Chart
View Comprehensive Chart
Miss Distance Evolution Trend with All Objects Subscribe to Flight Safety Assessment
Collision Probability Evolution Trend with All Objects Subscribe to Flight Safety Assessment